Weather History for Ogden, UT

Change the Weather History Date:

Monday, February 24, 2014

  Actual Average Record
Temperature  
Mean Temperature 47 °F -  
Max Temperature 55 °F 47 °F 66 °F (1981)
Min Temperature 39 °F 25 °F -2 °F (1952)
Degree Days  
Heating Degree Days 18    
Moisture  
Dew Point 23 °F    
Average Humidity 40    
Maximum Humidity 53    
Minimum Humidity 23    
Precipitation  
Precipitation 0.00 in - - ()
Sea Level Pressure  
Sea Level Pressure 29.99 in    
Wind  
Wind Speed 7 mph (South)    
Max Wind Speed 10 mph    
Max Gust Speed -    
Visibility 10 miles    
Events      
Averages and records for this station are not official NWS values.
T = Trace of Precipitation, MM = Missing Value Source: NWS Daily Summary

Daily Weather History Graph

Daily Weather History Graph

Search for Another Location

Airport:

Trip Planner

Search our weather history database for the weather conditions in past years. The results will help you decide how hot, cold, wet, or windy it might be!

Date:

Astronomy

Feb. 24, 2014 Rise Set
Actual Time 7:09 AM MST 6:13 PM MST
Civil Twilight 6:42 AM MST 6:41 PM MST
Nautical Twilight 6:10 AM MST 7:13 PM MST
Astronomical Twilight 5:38 AM MST 7:44 PM MST
Moon 3:13 AM MST (2/24) 1:16 PM MST (2/24)
Length of Visible Light 11h 59m
Length of Day
11h 03m
Waning Crescent, 27% of the Moon is Illuminated
Feb 24
Waning Crescent
Mar 1
New
Mar 8
First Quarter
Mar 16
Full
Mar 23
Last Quarter

Hourly Weather History & Observations

Time (MST) Temp. Windchill Dew Point Humidity Pressure Visibility Wind Dir Wind Speed Gust Speed Precip Events Conditions
12:53 AM 42.1 °F 36.6 °F 23.0 °F 47% 29.94 in 10.0 mi South 9.2 mph - N/A   Clear
1:53 AM 41.0 °F 35.2 °F 23.0 °F 49% 29.95 in 10.0 mi South 9.2 mph - N/A   Partly Cloudy
2:53 AM 41.0 °F 37.1 °F 23.0 °F 49% 29.95 in 10.0 mi South 5.8 mph - N/A   Overcast
3:53 AM 39.9 °F 36.7 °F 24.1 °F 53% 29.95 in 10.0 mi Variable 4.6 mph - N/A   Overcast
4:53 AM 39.9 °F 33.9 °F 24.1 °F 53% 29.96 in 10.0 mi South 9.2 mph - N/A   Overcast
5:53 AM 41.0 °F 35.2 °F 23.0 °F 49% 29.97 in 10.0 mi South 9.2 mph - N/A   Overcast
6:53 AM 41.0 °F 34.7 °F 23.0 °F 49% 29.98 in 10.0 mi South 10.4 mph - N/A   Overcast
7:53 AM 42.1 °F 36.6 °F 23.0 °F 47% 30.02 in 10.0 mi South 9.2 mph - N/A   Mostly Cloudy
8:53 AM 46.0 °F 42.5 °F 23.0 °F 40% 30.03 in 10.0 mi South 6.9 mph - N/A   Clear
9:53 AM 52.0 °F - 21.9 °F 31% 30.04 in 10.0 mi SSE 6.9 mph - N/A   Mostly Cloudy
10:53 AM 52.0 °F - 19.9 °F 28% 30.05 in 10.0 mi SW 4.6 mph - N/A   Overcast
11:53 AM 54.0 °F - 21.9 °F 29% 30.05 in 10.0 mi SW 5.8 mph - N/A   Mostly Cloudy
12:53 PM 54.0 °F - 24.1 °F 31% 30.04 in 10.0 mi NNW 8.1 mph - N/A   Overcast
1:53 PM 54.0 °F - 25.0 °F 33% 30.02 in 10.0 mi Calm Calm - N/A   Overcast
2:53 PM 55.9 °F - 25.0 °F 30% 30.01 in 10.0 mi Variable 3.5 mph - N/A   Overcast
3:53 PM 55.9 °F - 24.1 °F 29% 30.01 in 10.0 mi Calm Calm - N/A   Overcast
4:53 PM 55.9 °F - 18.0 °F 23% 30.00 in 10.0 mi West 3.5 mph - N/A   Overcast
5:53 PM 54.0 °F - 18.0 °F 24% 30.00 in 10.0 mi Calm Calm - N/A   Scattered Clouds
6:53 PM 48.9 °F - 21.9 °F 35% 30.01 in 10.0 mi Calm Calm - N/A   Mostly Cloudy
7:53 PM 50.0 °F - 26.1 °F 39% 30.00 in 10.0 mi Calm Calm - N/A   Overcast
8:53 PM 46.9 °F - 27.0 °F 46% 29.98 in 10.0 mi SSE 4.6 mph - N/A   Overcast
9:53 PM 46.9 °F - 26.1 °F 44% 29.97 in 10.0 mi South 8.1 mph - N/A   Overcast
10:53 PM 46.9 °F - 26.1 °F 44% 29.97 in 10.0 mi South 6.9 mph - N/A   Overcast
11:53 PM 46.0 °F 43.9 °F 27.0 °F 47% 29.97 in 10.0 mi South 4.6 mph - N/A   Overcast